RH
98 97 94 89 85 98 98 86 58 46 32 36 30 38 41 42 38 46 46 46 49 65 72 77 57 48 92 71 66 91 72 80 64 40 56 55 57 58 61 76 57 83 79 65
99 97 92 91 84 98 100 94 73 46 42 40 43 41 44 40 44 42 45 48 61 61 71 76 56 57 95 85 84 93 78 64 56 35 52 68 77 76 66 66 75 69 74 67
96 92 92 89 88 95 100 99 72 46 49 57 52 56 48 51 44 46 62 63 49 63 58 46 77 68 74 59 60 64 70 73 62 59 40 38 51 41 39 56 87 55 48 46
92 91 88 88 91 97 100 99 78 64 58 50 49 51 51 56 47 44 48 50 50 89 74 63 56 44 49 47 46 57 64 72 50 44 40 43 48 47 46 56 53 66 45 42
95 92 92 87 82 91 99 98 96 97 78 62 60 60 54 51 45 46 51 56 62 72 88 63 91 70 66 66 64 60 63 69 53 61 44 41 47 40 43 46 43 43 42 46
91 88 87 86 86 86 100 99 98 99 94 80 83 61 53 47 41 46 49 55 77 73 60 56 62 60 58 60 63 70 74 72 76 62 35 44 56 44 42 44 43 42 54 55
88 82 81 86 88 89 96 99 100 98 88 94 75 56 53 51 51 61 51 55 68 77 92 80 68 69 68 62 60 56 87 76 84 62 47 66 40 32 36 37 37 35 42 63
85 88 86 86 81 86 98 99 99 98 94 74 86 84 75 79 82 66 65 61 71 90 85 76 74 43 57 59 65 75 86 82 87 66 53 39 31 44 41 40 35 34 38 52
80 81 79 80 82 82 91 90 98 99 98 82 97 89 91 89 87 60 62 86 91 90 74 66 82 60 59 48 73 70 86 87 89 65 65 57 38 33 31 33 43 33 37 43
81 88 87 92 91 88 91 97 94 99 98 93 97 94 94 97 84 77 63 85 95 98 69 70 66 61 52 72 65 73 86 86 79 59 78 48 43 36 38 57 72 35 55 62
84 88 96 92 87 93 97 97 93 99 98 98 88 95 98 98 88 82 93 89 93 90 83 65 64 68 72 69 59 55 58 72 70 59 79 65 36 36 50 83 86 80 73 88
80 75 64 90 92 94 99 98 92 89 100 98 97 95 98 97 94 98 98 76 73 76 79 72 69 69 72 56 67 48 69 52 81 66 58 47 74 86 100 100 98 98 98 98
92 88 96 98 98 98 99 98 94 89 98 93 98 92 85 78 88 97 97 95 90 97 98 86 84 89 60 69 66 56 54 47 76 75 44 72 89 100 96 85 99 99 99 95
93 92 95 98 98 97 98 98 86 88 97 93 78 76 76 77 80 95 100 98 98 94 96 94 84 81 59 67 81 75 59 88 79 82 60 89 93 93 91 78 90 100 97 93
94 94 96 98 98 98 98 84 82 98 98 91 78 86 87 86 86 87 89 96 97 98 95 87 80 68 84 64 74 72 55 88 82 88 90 86 81 96 85 94 100 100 100 91
97 98 98 98 97 98 87 92 84 86 99 97 84 87 89 84 84 87 90 97 97 98 96 89 94 94 94 88 71 70 83 92 93 93 88 84 86 86 85 100 100 100 96 88
96 99 98 96 100 95 96 97 95 88 98 99 84 80 78 77 84 92 100 96 100 98 97 92 91 93 98 89 73 69 89 94 88 82 80 86 88 89 90 96 99 100 96 77
94 93 98 98 99 96 98 98 97 94 98 97 92 76 74 81 83 80 93 91 97 98 96 91 87 90 87 87 60 66 90 95 90 88 86 81 80 86 89 89 93 95 95 93
80 92 97 100 95 98 99 90 87 98 97 95 87 82 83 80 92 93 92 93 87 90 84 81 87 81 84 72 74 69 78 93 94 84 80 84 87 74 74 81 84 83 79 72
94 89 84 97 100 97 91 87 88 87 85 88 87 93 89 86 84 89 86 91 84 87 86 93 84 79 64 65 67 68 67 80 88 86 82 82 82 62 62 71 77 71 54 48
84 80 86 97 89 87 81 91 83 90 79 95 98 96 90 95 89 87 94 86 84 87 88 87 78 71 53 60 62 66 68 70 79 91 85 67 63 48 47 54 58 52 50 50
76 74 76 82 81 82 75 87 85 81 84 88 88 92 97 99 95 89 90 86 85 88 81 85 78 55 58 42 42 51 66 67 66 80 81 71 50 45 47 50 50 49 50 51
71 65 70 77 80 76 70 76 74 80 84 94 95 90 99 98 98 88 86 87 88 84 86 76 60 58 54 58 64 48 54 65 66 71 72 60 46 41 44 48 49 50 50 46
66 78 79 83 76 73 70 68 73 91 100 99 97 91 90 96 85 85 89 86 86 88 89 82 59 70 55 85 94 89 64 51 69 75 72 48 46 44 42 44 46 48 46 45
69 74 78 82 78 81 77 73 80 91 92 100 96 95 92 86 88 84 86 89 87 83 86 85 90 88 95 94 94 94 94 92 74 63 77 69 49 47 45 46 45 46 47 46
77 74 80 86 85 84 89 96 99 88 96 95 99 88 91 88 89 90 85 86 81 85 84 93 100 97 95 94 90 84 84 83 84 92 71 83 64 52 48 46 44 44 46 46
86 95 85 84 88 89 96 100 100 93 100 88 90 93 88 90 91 88 73 81 75 86 88 100 99 93 93 91 90 88 84 78 79 81 93 90 83 59 54 47 43 45 45 47
Wind_Speed
28 29 30 30 29 32 27 14 6 22 16 12 3 5 10 10 9 8 8 8 9 9 5 5 7 9 4 4 3 3 1 2 6 12 5 2 2 4 4 5 7 3 6 10
29 29 29 28 28 27 27 17 14 8 17 4 5 10 8 12 9 10 6 7 4 7 7 6 5 5 5 5 5 3 2 2 5 6 3 2 2 5 3 6 4 9 7 2
30 29 28 28 27 26 25 7 5 8 3 2 3 5 6 8 8 9 4 8 9 7 6 8 7 9 2 7 8 8 5 4 9 12 14 11 9 12 12 9 6 10 12 17
31 30 30 29 26 25 21 4 4 4 8 12 7 5 6 10 7 3 7 6 8 4 4 9 13 6 13 14 9 3 3 9 13 14 16 14 14 16 16 15 15 15 16 16
32 30 29 27 26 24 21 7 3 7 13 17 11 9 7 11 8 4 10 12 15 6 7 12 13 11 9 7 2 4 3 7 9 10 12 14 16 18 17 16 16 16 16 18
31 30 27 25 24 23 18 15 16 16 6 6 7 11 13 9 6 8 10 10 10 15 17 16 14 18 19 15 13 10 4 4 3 9 4 6 10 16 13 10 7 7 9 3
31 28 25 24 23 21 23 25 23 8 6 10 12 11 13 14 12 13 16 15 13 10 7 16 18 20 23 21 18 16 6 8 6 5 7 7 3 2 3 6 7 7 7 4
26 24 24 20 21 21 21 21 22 9 7 15 14 18 19 12 13 14 16 17 13 12 7 5 5 10 6 3 6 10 11 8 3 3 6 10 9 5 2 3 8 4 5 7
27 27 25 24 23 22 23 22 20 17 6 5 8 7 11 7 8 11 10 6 6 3 3 4 3 3 5 1 5 2 7 9 4 3 4 3 8 5 3 1 4 7 5 7
29 29 28 27 25 22 22 24 21 18 9 16 6 4 4 5 3 6 7 3 1 5 4 6 5 3 1 3 2 4 5 4 10 10 6 6 6 4 1 3 3 5 4 4
31 30 28 27 26 23 21 21 18 15 10 12 15 13 7 6 7 8 1 2 3 4 4 3 2 3 1 3 1 1 2 2 4 5 4 7 4 4 3 3 3 4 1 2
32 33 30 25 25 23 20 18 15 14 19 7 6 14 15 16 17 10 4 4 1 3 4 2 2 3 3 3 3 1 3 6 3 3 0 4 5 4 3 1 2 2 2 3
29 26 26 24 22 19 15 12 13 12 8 10 7 4 7 7 12 15 7 6 4 3 5 1 2 5 1 3 4 4 4 5 4 4 7 3 3 5 3 2 2 3 3 4
28 26 24 22 19 16 13 9 11 9 6 4 2 4 6 8 8 7 16 17 11 10 9 6 4 3 2 2 2 4 6 2 5 9 10 5 4 3 0 3 4 3 5 5
26 23 22 20 16 13 6 8 11 8 6 4 5 10 8 6 6 7 10 12 11 7 5 4 3 0 1 5 3 8 7 3 4 2 4 2 3 2 3 4 3 3 4 5
23 19 18 15 10 2 2 2 3 7 5 4 3 3 4 5 5 4 4 5 5 5 2 1 1 1 1 3 3 4 1 1 1 1 1 1 2 3 2 1 1 4 5 5
15 12 15 4 2 3 1 1 2 8 3 3 3 1 3 7 5 4 4 3 1 1 1 1 3 2 3 2 4 5 1 2 1 1 1 1 1 1 1 3 4 5 5 6
10 9 5 0 6 2 0 3 4 5 2 2 3 2 1 6 3 1 4 2 1 3 3 1 2 1 1 3 3 3 1 3 3 3 3 4 3 3 4 4 5 6 6 6
5 3 5 8 1 2 3 3 3 3 3 2 1 3 3 6 2 2 1 2 0 1 0 2 3 1 3 3 4 5 4 4 3 4 3 2 3 4 5 6 6 7 8 8
5 8 2 2 3 2 3 3 2 2 2 2 1 3 2 6 4 1 3 2 2 1 2 2 2 2 5 6 7 9 7 7 7 5 4 6 7 8 8 7 8 8 8 8
4 3 2 3 3 3 2 2 3 4 0 3 2 2 4 5 3 3 3 2 1 2 2 2 0 1 2 8 8 6 3 6 9 10 7 5 7 9 10 10 10 10 10 9
3 3 7 3 3 3 1 2 1 1 3 2 4 3 2 3 3 3 2 2 1 1 1 2 1 2 5 10 10 8 7 8 8 10 8 7 6 7 10 10 11 10 10 10
3 3 2 3 3 3 4 5 2 3 2 2 3 1 2 2 2 1 2 2 1 1 2 2 1 2 6 10 12 12 9 5 4 6 7 7 8 8 11 11 11 11 11 10
3 3 3 3 2 1 1 2 2 2 3 4 3 2 2 2 1 2 2 2 2 2 2 0 2 2 6 10 12 12 12 9 7 9 9 9 10 10 11 12 12 12 11 10
2 2 1 0 1 2 3 3 3 4 3 2 2 0 1 1 1 1 2 2 2 2 1 1 1 5 9 9 11 12 13 12 11 10 12 13 12 13 13 13 13 12 12 12
2 2 1 1 2 2 2 2 3 3 2 3 1 1 1 1 1 2 3 1 2 2 1 2 4 6 10 13 14 14 15 15 15 14 13 15 16 15 15 15 14 13 13 12
2 0 1 3 4 4 2 2 2 2 1 2 1 2 1 1 2 2 2 2 2 3 4 4 7 12 16 18 16 15 17 18 18 17 15 15 16 17 18 18 15 14 13 13
Wind_Direction
331 330 332 334 334 332 341 340 322 313 346 306 354 11 333 328 333 336 305 302 296 303 303 281 277 284 52 55 345 306 43 297 276 284 109 54 332 293 322 257 258 312 288 272
330 328 330 330 330 331 325 320 300 314 345 340 360 341 319 315 314 335 325 305 21 329 314 302 284 315 16 22 6 351 318 217 289 253 157 92 201 174 217 274 278 269 270 316
326 326 324 324 322 324 321 300 302 306 23 23 325 332 303 311 316 311 289 279 289 301 299 295 297 295 294 340 302 294 313 249 251 267 292 319 280 274 268 249 253 270 265 285
320 317 315 313 315 318 310 240 274 303 287 293 301 253 271 284 302 257 285 284 272 316 285 293 271 295 322 314 313 265 273 267 271 268 279 288 285 276 270 255 254 257 276 283
316 317 317 316 315 318 300 250 272 267 262 269 257 238 237 252 276 253 271 274 281 268 250 276 292 293 279 270 254 257 239 270 280 272 263 260 268 263 260 260 263 266 268 273
317 318 316 319 310 310 296 288 275 255 270 225 226 245 264 245 264 275 265 282 289 280 273 280 279 279 270 255 265 263 264 272 247 269 297 309 269 253 240 252 240 257 255 348
316 315 313 310 311 302 293 288 290 248 270 246 228 255 259 251 263 269 278 279 278 286 294 295 280 263 257 255 259 248 235 260 246 277 284 246 73 23 345 282 269 270 256 138
312 311 313 311 306 310 299 291 272 242 265 271 269 249 253 261 278 271 266 279 279 255 302 275 281 272 227 216 214 227 220 229 266 252 265 293 304 76 90 340 313 17 276 138
312 311 311 309 307 306 303 300 296 261 272 269 312 291 229 242 267 285 255 263 241 173 258 262 263 296 328 256 141 194 193 218 261 202 262 273 88 73 15 318 236 23 9 141
306 305 305 304 302 301 298 291 295 272 255 282 226 220 213 173 237 261 283 222 178 177 245 264 273 270 1 279 255 167 160 182 222 240 260 264 80 80 16 246 72 15 31 120
304 305 303 305 306 300 293 288 295 284 275 273 271 240 212 217 236 259 153 244 184 169 245 267 222 262 133 284 58 176 227 234 207 233 258 261 95 119 273 78 38 32 52 169
301 299 300 302 300 301 298 286 300 312 262 272 263 274 259 249 267 276 214 277 131 226 259 231 301 234 196 296 284 71 259 226 319 244 349 70 50 58 104 103 286 301 260 210
306 303 301 302 299 298 292 284 299 308 290 290 280 288 269 262 243 229 248 231 197 219 242 306 261 258 313 268 245 255 254 235 236 292 243 3 116 120 105 48 314 301 267 230
305 302 302 302 300 297 287 292 298 298 286 287 324 312 279 289 284 251 225 246 268 266 242 230 238 240 189 266 299 246 267 193 256 268 279 132 156 140 231 308 290 261 228 203
304 301 302 303 302 303 278 291 293 285 256 312 307 293 304 319 314 280 269 260 268 250 219 221 242 23 202 251 266 261 288 267 266 335 71 47 91 175 291 292 265 239 218 194
306 304 299 297 303 268 46 307 43 33 244 299 297 297 325 351 2 349 321 265 242 236 264 293 210 130 274 266 273 83 44 306 314 28 152 63 228 271 274 163 163 184 184 175
314 314 314 323 271 177 117 208 297 327 162 276 280 250 332 353 16 20 17 29 10 280 350 248 359 103 307 271 265 69 130 136 340 292 291 214 202 218 223 158 147 156 169 164
332 314 300 307 167 114 294 324 310 318 240 288 309 317 259 9 1 350 10 357 14 34 21 125 -0 229 298 263 306 320 253 230 273 268 270 258 232 183 171 164 156 147 157 164
18 62 111 146 143 42 17 351 5 282 225 341 318 315 354 355 358 2 17 352 43 8 323 66 310 137 234 330 323 322 274 230 242 231 257 214 191 192 185 174 170 168 166 167
93 122 66 58 91 26 22 30 42 32 41 38 321 333 316 350 343 79 304 11 26 310 65 316 254 273 297 319 319 298 267 239 243 213 240 230 218 208 201 190 187 185 185 184
94 95 71 111 84 35 41 42 19 348 43 13 3 353 325 357 323 360 17 -0 353 286 80 305 253 269 35 343 336 331 281 267 253 240 253 262 243 228 213 205 198 198 202 207
70 85 95 69 28 25 35 26 301 337 2 -0 337 350 317 327 347 290 32 328 265 13 7 272 249 81 8 359 353 331 303 293 262 235 245 257 239 234 218 215 211 211 214 220
13 22 52 16 358 40 21 360 28 340 351 346 329 318 337 316 2 308 291 269 29 303 235 263 11 73 2 5 6 5 354 328 277 238 247 254 245 242 222 219 218 219 225 228
338 16 16 14 26 42 10 326 322 317 301 309 309 299 330 332 290 342 279 47 280 256 255 299 72 357 349 350 353 356 357 345 299 267 260 258 246 238 226 221 222 226 233 235
342 4 17 285 12 264 269 272 281 283 292 302 299 231 298 355 280 352 301 235 252 244 336 53 21 322 331 339 340 338 335 333 325 295 268 257 246 240 230 226 226 226 229 234
348 47 239 271 262 213 261 273 286 291 284 319 342 325 284 235 311 247 229 252 252 51 16 351 315 319 322 322 321 320 318 317 313 304 287 260 246 241 233 229 228 228 231 232
321 279 272 256 274 276 289 281 281 237 300 318 322 280 332 74 247 251 216 249 345 329 307 292 307 318 320 318 312 317 317 310 304 302 294 271 248 237 229 228 227 227 229 229